Location: Newark
(47.5989°N, 4.6950°E)
Time: 02:33:26
(UTC+00:00)

ISS - Pass Details

Date: 23 November 2019
Orbit: 411 x 421 km, 51.6° (Epoch: 07 December)

Event Time Altitude Azimuth Distance (km) Brightness Sun altitude
Rises 18:11:47 0° 232° (SW) 2,348 1.0 -22.2°
Reaches altitude 10° 18:13:53 10° 227° (SW) 1,490 -0.3 -22.6°
Enters shadow 18:16:02 34° 209° (SSW) 706 -2.4 -22.9°
